Weather History for PAEN - November, 2012

Change the Weather History Date:

Thursday, November 15, 2012

  Actual Average Record
Temperature  
Mean Temperature 26 °F -  
Max Temperature 28 °F 29 °F 43 °F (1976)
Min Temperature 24 °F 14 °F -12 °F (1956)
Degree Days  
Heating Degree Days 39    
Moisture  
Dew Point 25 °F    
Average Humidity 91    
Maximum Humidity 100    
Minimum Humidity 84    
Precipitation  
Precipitation 0.00 in - - ()
Sea Level Pressure  
Sea Level Pressure 29.46 in    
Wind  
Wind Speed 4 mph (NE)    
Max Wind Speed 10 mph    
Max Gust Speed -    
Visibility 8 miles    
Events Snow    
Averages and records for this station are not official NWS values.
T = Trace of Precipitation, MM = Missing Value Source: NWS Daily Summary

Daily Weather History Graph

Daily Weather History Graph

Search for Another Location

Airport or City:

Trip Planner

Search our weather history database for the weather conditions in past years. The results will help you decide how hot, cold, wet, or windy it might be!

Date:

Astronomy

Nov. 15, 2012 Rise Set
Actual Time 9:08 AM AKST 4:30 PM AKST
Civil Twilight 8:17 AM AKST 5:20 PM AKST
Nautical Twilight 7:24 AM AKST 6:13 PM AKST
Astronomical Twilight 6:34 AM AKST 7:03 PM AKST
Moon 11:38 AM AKST (11/15) 6:10 PM AKST (11/15)
Length of Visible Light 9h 02m
Length of Day
7h 21m
Waxing Crescent, 6% of the Moon is Illuminated
Nov 15
Waxing Crescent
Nov 20
First Quarter
Nov 28
Full
Dec 6
Last Quarter
Dec 12
New

Hourly Weather History & Observations

Time (AKST) Temp. Windchill Dew Point Humidity Pressure Visibility Wind Dir Wind Speed Gust Speed Precip Events Conditions
12:07 AM 28.4 °F 24.6 °F 26.6 °F 93% 29.35 in 10.0 mi NE 3.5 mph - N/A   Overcast
12:18 AM 26.6 °F 21.2 °F 26.6 °F 100% 29.36 in 10.0 mi NE 4.6 mph - N/A   Overcast
12:43 AM 28.4 °F 23.3 °F 26.6 °F 93% 29.37 in 10.0 mi NE 4.6 mph - N/A   Overcast
12:53 AM 28.0 °F 24.2 °F 27.0 °F 96% 29.38 in 10.0 mi NE 3.5 mph - N/A   Overcast
1:04 AM 28.4 °F 24.6 °F 26.6 °F 93% 29.37 in 10.0 mi NE 3.5 mph - N/A   Overcast
1:31 AM 28.4 °F - 26.6 °F 93% 29.38 in 10.0 mi Calm Calm - N/A   Overcast
1:53 AM 28.9 °F - 26.1 °F 89% 29.39 in 10.0 mi Calm Calm - N/A   Overcast
2:38 AM 28.4 °F - 26.6 °F 93% 29.38 in 10.0 mi Calm Calm - 0.00 in   Overcast
3:12 AM 28.4 °F - 26.6 °F 93% 29.40 in 10.0 mi Calm Calm - N/A   Overcast
3:53 AM 28.0 °F - 26.1 °F 92% 29.42 in 10.0 mi Calm Calm - N/A   Overcast
4:01 AM 28.4 °F - 26.6 °F 93% 29.41 in 10.0 mi Calm Calm - N/A   Overcast
4:39 AM 28.4 °F - 26.6 °F 93% 29.41 in 10.0 mi Calm Calm - N/A   Overcast
4:53 AM 28.0 °F - 26.1 °F 92% 29.42 in 10.0 mi Calm Calm - N/A   Overcast
5:53 AM 27.0 °F 23.0 °F 25.0 °F 92% 29.43 in 10.0 mi NE 3.5 mph - N/A   Overcast
6:39 AM 26.6 °F 21.2 °F 24.8 °F 93% 29.43 in 10.0 mi NE 4.6 mph - N/A   Overcast
6:46 AM 26.6 °F 21.2 °F 24.8 °F 93% 29.43 in 10.0 mi NE 4.6 mph - N/A   Overcast
6:53 AM 27.0 °F 20.5 °F 25.0 °F 92% 29.44 in 10.0 mi ENE 5.8 mph - N/A   Overcast
7:53 AM 27.0 °F 23.0 °F 24.1 °F 89% 29.44 in 10.0 mi ENE 3.5 mph - N/A   Overcast
8:53 AM 26.1 °F - 24.1 °F 92% 29.46 in 10.0 mi Calm Calm - N/A   Overcast
9:25 AM 26.6 °F - 24.8 °F 93% 29.45 in 10.0 mi Calm Calm - N/A   Overcast
9:43 AM 26.6 °F - 24.8 °F 93% 29.45 in 10.0 mi Calm Calm - N/A   Overcast
9:53 AM 26.1 °F 21.9 °F 24.1 °F 92% 29.46 in 10.0 mi NNE 3.5 mph - N/A   Overcast
10:20 AM 26.6 °F 22.6 °F 24.8 °F 93% 29.46 in 10.0 mi NNE 3.5 mph - N/A   Overcast
10:37 AM 26.6 °F 20.0 °F 24.8 °F 93% 29.46 in 9.0 mi NNE 5.8 mph - 0.00 in   Overcast
10:53 AM 27.0 °F 19.5 °F 24.1 °F 89% 29.47 in 3.0 mi NE 6.9 mph - 0.00 in Snow Light Snow
11:46 AM 28.4 °F 20.4 °F 24.8 °F 86% 29.47 in 7.0 mi NE 8.1 mph - 0.00 in Snow Light Snow
11:53 AM 28.0 °F 20.8 °F 25.0 °F 88% 29.48 in 8.0 mi NE 6.9 mph - 0.00 in Snow Light Snow
12:15 PM 28.4 °F 21.2 °F 26.6 °F 93% 29.47 in 2.5 mi NE 6.9 mph - 0.00 in Snow Light Snow
12:28 PM 28.4 °F 20.4 °F 26.6 °F 93% 29.47 in 2.5 mi NE 8.1 mph - 0.00 in Snow Light Snow
12:46 PM 28.4 °F 19.1 °F 26.6 °F 93% 29.47 in 1.5 mi NE 10.4 mph - 0.00 in Snow Light Snow
12:53 PM 28.0 °F 18.6 °F 26.1 °F 92% 29.48 in 1.8 mi NE 10.4 mph - 0.00 in Snow Light Snow
1:53 PM 28.9 °F 20.4 °F 26.1 °F 89% 29.48 in 2.0 mi NNE 9.2 mph - 0.00 in Snow Light Snow
2:41 PM 28.4 °F 19.1 °F 26.6 °F 93% 29.47 in 1.8 mi NNE 10.4 mph - 0.00 in Snow Light Snow
2:53 PM 28.9 °F 19.8 °F 26.1 °F 89% 29.48 in 2.0 mi NE 10.4 mph - 0.00 in Snow Light Snow
3:53 PM 28.9 °F 19.8 °F 25.0 °F 85% 29.49 in 2.0 mi NE 10.4 mph - 0.00 in Snow Light Snow
3:55 PM 28.4 °F 19.1 °F 24.8 °F 86% 29.48 in 3.0 mi NNE 10.4 mph - 0.00 in Snow Light Snow
4:53 PM 28.9 °F 19.8 °F 25.0 °F 85% 29.49 in 5.0 mi NE 10.4 mph - 0.00 in Snow Light Snow
5:30 PM 28.4 °F 20.4 °F 26.6 °F 93% 29.50 in 5.0 mi NE 8.1 mph - 0.00 in   Overcast
5:53 PM 28.9 °F 21.9 °F 26.1 °F 89% 29.51 in 10.0 mi NE 6.9 mph - 0.00 in   Overcast
6:53 PM 27.0 °F 18.0 °F 24.1 °F 89% 29.53 in 10.0 mi NE 9.2 mph - N/A   Overcast
7:53 PM 28.0 °F 20.0 °F 24.1 °F 85% 29.55 in 10.0 mi NE 8.1 mph - N/A   Overcast
8:53 PM 27.0 °F 20.5 °F 24.1 °F 89% 29.57 in 10.0 mi NE 5.8 mph - N/A   Overcast
9:53 PM 25.0 °F 18.1 °F 23.0 °F 92% 29.58 in 10.0 mi ENE 5.8 mph - N/A   Mostly Cloudy
10:53 PM 24.1 °F 15.2 °F 19.9 °F 84% 29.60 in 10.0 mi NE 8.1 mph - N/A   Scattered Clouds
11:53 PM 24.1 °F 16.0 °F 19.9 °F 84% 29.61 in 10.0 mi NE 6.9 mph - N/A   Clear